| time (UTC) | temp C | wind direction | speed KPH | gust KPH | rain 1hr cm | rain 24hr cm | rain mn cm | humidity % | barometer mb |
| 20260903183058 | 21 | 258 | 8.0 | 20.9 | 0.00 | 0.13 | 0.13 | 87 | 1016.2 |
| 20260903182557 | 21 | 236 | 11.3 | 20.9 | 0.00 | 0.13 | 0.13 | 87 | 1016.3 |
| 20260903181058 | 21 | 240 | 8.0 | 27.4 | 0.00 | 0.13 | 0.13 | 86 | 1016.2 |
| 20260903174557 | 21 | 245 | 11.3 | 19.3 | 0.00 | 0.13 | 0.13 | 84 | 1016.3 |
| 20260903173557 | 21 | 244 | 8.0 | 19.3 | 0.00 | 0.13 | 0.13 | 83 | 1016.3 |
| 20260903173059 | 22 | 225 | 9.7 | 19.3 | 0.00 | 0.13 | 0.13 | 83 | 1016.5 |
| 20260903172557 | 22 | 246 | 6.4 | 16.1 | 0.00 | 0.13 | 0.13 | 82 | 1016.6 |
| 20260903172058 | 22 | 261 | 8.0 | 19.3 | 0.00 | 0.13 | 0.13 | 81 | 1016.5 |
| 20260903171557 | 22 | 339 | 4.8 | 12.9 | 0.00 | 0.13 | 0.13 | 81 | 1016.4 |
| 20260903171058 | 22 | 237 | 4.8 | 19.3 | 0.00 | 0.13 | 0.13 | 81 | 1016.4 |
| 20260903162557 | 22 | 248 | 11.3 | 32.2 | 0.00 | 0.13 | 0.13 | 80 | 1016.3 |
| 20260903162058 | 22 | 243 | 9.7 | 24.1 | 0.00 | 0.13 | 0.13 | 79 | 1016.6 |
| 20260903155557 | 22 | 242 | 11.3 | 19.3 | 0.00 | 0.13 | 0.13 | 79 | 1016.4 |
| 20260903155058 | 22 | 257 | 12.9 | 22.5 | 0.00 | 0.13 | 0.13 | 79 | 1016.4 |
| 20260903154557 | 22 | 240 | 12.9 | 20.9 | 0.00 | 0.13 | 0.13 | 79 | 1016.4 |
| 20260903154058 | 22 | 249 | 9.7 | 22.5 | 0.00 | 0.13 | 0.13 | 79 | 1016.4 |
| 20260903153557 | 22 | 247 | 9.7 | 27.4 | 0.00 | 0.13 | 0.13 | 78 | 1016.5 |
| 20260903152557 | 22 | 262 | 11.3 | 22.5 | 0.00 | 0.13 | 0.13 | 76 | 1016.6 |
| 20260903152058 | 22 | 299 | 11.3 | 27.4 | 0.00 | 0.13 | 0.13 | 75 | 1016.7 |
| 20260903151557 | 22 | 249 | 14.5 | 22.5 | 0.00 | 0.13 | 0.13 | 76 | 1016.8 |
| 20260903151057 | 22 | 254 | 11.3 | 32.2 | 0.00 | 0.13 | 0.13 | 76 | 1016.8 |
| 20260903145058 | 22 | 256 | 8.0 | 24.1 | 0.00 | 0.13 | 0.13 | 74 | 1016.6 |
| 20260903144557 | 22 | 271 | 9.7 | 24.1 | 0.00 | 0.13 | 0.13 | 75 | 1016.8 |
| 20260903144057 | 23 | 284 | 11.3 | 24.1 | 0.00 | 0.13 | 0.13 | 74 | 1016.7 |
| 20260903143558 | 23 | 267 | 11.3 | 32.2 | 0.00 | 0.13 | 0.13 | 74 | 1016.7 |
| 20260903142057 | 22 | 235 | 14.5 | 25.7 | 0.00 | 0.13 | 0.13 | 74 | 1016.5 |
| 20260903141557 | 22 | 283 | 12.9 | 29.0 | 0.00 | 0.13 | 0.13 | 74 | 1016.5 |
| 20260903141058 | 22 | 264 | 14.5 | 27.4 | 0.00 | 0.13 | 0.13 | 74 | 1016.6 |
| 20260903134557 | 22 | 247 | 16.1 | 27.4 | 0.00 | 0.13 | 0.13 | 72 | 1016.5 |
| 20260903134058 | 22 | 291 | 14.5 | 24.1 | 0.00 | 0.13 | 0.13 | 74 | 1016.5 |
| 20260903133557 | 22 | 261 | 11.3 | 27.4 | 0.00 | 0.13 | 0.13 | 73 | 1016.6 |
| 20260903130057 | 22 | 270 | 11.3 | 32.2 | 0.00 | 0.13 | 0.13 | 74 | 1016.3 |
| 20260903124556 | 22 | 265 | 12.9 | 35.4 | 0.00 | 0.13 | 0.13 | 75 | 1016.4 |
| 20260903124058 | 22 | 260 | 16.1 | 32.2 | 0.00 | 0.13 | 0.13 | 75 | 1016.4 |
| 20260903123557 | 22 | 263 | 19.3 | 33.8 | 0.00 | 0.13 | 0.13 | 76 | 1016.4 |
| 20260903123057 | 22 | 263 | 16.1 | 37.0 | 0.00 | 0.13 | 0.13 | 75 | 1016.4 |
| 20260903120057 | 22 | 268 | 12.9 | 35.4 | 0.00 | 0.13 | 0.13 | 76 | 1016.3 |
| 20260903115557 | 22 | 262 | 9.7 | 25.7 | 0.00 | 0.13 | 0.13 | 77 | 1016.3 |
| 20260903115057 | 22 | 271 | 17.7 | 32.2 | 0.00 | 0.13 | 0.13 | 76 | 1016.2 |
| 20260903114557 | 22 | 278 | 12.9 | 25.7 | 0.00 | 0.13 | 0.13 | 78 | 1016.3 |
| 20260903113057 | 22 | 263 | 14.5 | 32.2 | 0.00 | 0.13 | 0.13 | 78 | 1016.2 |
| 20260903112557 | 22 | 246 | 16.1 | 32.2 | 0.00 | 0.13 | 0.13 | 78 | 1016.2 |
| 20260903112057 | 22 | 263 | 11.3 | 27.4 | 0.00 | 0.13 | 0.13 | 79 | 1016.1 |
| 20260903111556 | 22 | 252 | 16.1 | 27.4 | 0.00 | 0.13 | 0.13 | 79 | 1016.1 |
| 20260903111058 | 21 | 267 | 14.5 | 27.4 | 0.00 | 0.13 | 0.13 | 80 | 1016.2 |
| 20260903110056 | 21 | 248 | 9.7 | 19.3 | 0.00 | 0.13 | 0.13 | 82 | 1016.0 |
| 20260903105556 | 21 | 257 | 14.5 | 27.4 | 0.00 | 0.13 | 0.13 | 81 | 1016.0 |
| 20260903105057 | 21 | 276 | 20.9 | 38.6 | 0.00 | 0.13 | 0.13 | 80 | 1016.0 |
| 20260903104557 | 21 | 249 | 17.7 | 33.8 | 0.00 | 0.13 | 0.13 | 79 | 1016.2 |
| 20260903104057 | 22 | 243 | 6.4 | 20.9 | 0.00 | 0.13 | 0.13 | 80 | 1016.1 |
| 20260903103557 | 21 | 237 | 16.1 | 40.2 | 0.00 | 0.13 | 0.13 | 79 | 1016.2 |
| 20260903103057 | 21 | 251 | 11.3 | 27.4 | 0.00 | 0.13 | 0.13 | 80 | 1016.2 |
| 20260903102556 | 21 | 249 | 9.7 | 32.2 | 0.00 | 0.13 | 0.13 | 80 | 1016.0 |
| 20260903102058 | 21 | 267 | 14.5 | 29.0 | 0.00 | 0.13 | 0.13 | 80 | 1016.1 |
| 20260903101557 | 21 | 271 | 16.1 | 29.0 | 0.00 | 0.18 | 0.13 | 79 | 1016.1 |
| 20260903101057 | 21 | 274 | 20.9 | 40.2 | 0.00 | 0.23 | 0.13 | 78 | 1016.0 |
| 20260903095057 | 21 | 248 | 16.1 | 33.8 | 0.00 | 0.23 | 0.13 | 82 | 1016.0 |
| 20260903093556 | 21 | 274 | 11.3 | 19.3 | 0.00 | 0.23 | 0.13 | 83 | 1015.8 |
| 20260903092556 | 21 | 263 | 11.3 | 19.3 | 0.00 | 0.23 | 0.13 | 83 | 1015.7 |
| 20260903092057 | 21 | 247 | 11.3 | 32.2 | 0.00 | 0.23 | 0.13 | 83 | 1015.7 |
| 20260903075057 | 20 | 258 | 8.0 | 20.9 | 0.00 | 0.23 | 0.13 | 92 | 1015.1 |
| 20260903074556 | 20 | 235 | 9.7 | 24.1 | 0.00 | 0.23 | 0.13 | 92 | 1015.2 |
| 20260903074057 | 20 | 237 | 9.7 | 22.5 | 0.00 | 0.23 | 0.13 | 93 | 1015.2 |
| 20260903072556 | 19 | 264 | 9.7 | 20.9 | 0.03 | 0.23 | 0.13 | 93 | 1015.3 |
| 20260903072057 | 19 | 275 | 6.4 | 14.5 | 0.05 | 0.23 | 0.13 | 94 | 1015.3 |
| 20260903063556 | 18 | 246 | 8.0 | 16.1 | 0.08 | 0.23 | 0.10 | 95 | 1015.3 |
| 20260903062556 | 18 | 254 | 9.7 | 19.3 | 0.08 | 0.23 | 0.10 | 95 | 1015.2 |
| 20260903062057 | 18 | 251 | 6.4 | 14.5 | 0.08 | 0.20 | 0.08 | 94 | 1015.2 |
| 20260903055057 | 18 | 248 | 11.3 | 19.3 | 0.05 | 0.15 | 0.05 | 94 | 1014.9 |
| 20260903054556 | 18 | 252 | 8.0 | 19.3 | 0.05 | 0.15 | 0.05 | 94 | 1014.8 |
| 20260903052556 | 18 | 240 | 8.0 | 19.3 | 0.03 | 0.15 | 0.03 | 93 | 1014.9 |
| 20260903052057 | 18 | 253 | 9.7 | 22.5 | 0.00 | 0.13 | 0.00 | 93 | 1015.0 |
| 20260903051556 | 18 | 247 | 8.0 | 20.9 | 0.00 | 0.13 | 0.00 | 94 | 1015.0 |
| 20260903051056 | 18 | 239 | 4.8 | 20.9 | 0.00 | 0.13 | 0.00 | 94 | 1015.0 |
| 20260903050056 | 18 | 236 | 8.0 | 19.3 | 0.00 | 0.13 | 0.00 | 94 | 1014.8 |
| 20260903045556 | 18 | 252 | 8.0 | 19.3 | 0.00 | 0.13 | 0.00 | 94 | 1014.8 |
| 20260903035056 | 18 | 248 | 8.0 | 22.5 | 0.00 | 0.13 | 0.00 | 93 | 1014.9 |
| 20260903033556 | 18 | 196 | 8.0 | 19.3 | 0.00 | 0.13 | 0.00 | 93 | 1015.3 |
| 20260903033056 | 18 | 243 | 8.0 | 16.1 | 0.00 | 0.13 | 0.00 | 92 | 1015.3 |
| 20260903023556 | 17 | 197 | 9.7 | 20.9 | 0.00 | 0.13 | 0.00 | 91 | 1015.3 |
| 20260903020057 | 18 | 248 | 12.9 | 32.2 | 0.00 | 0.13 | 0.00 | 82 | 1015.9 |
| 20260903015057 | 18 | 222 | 8.0 | 20.9 | 0.00 | 0.13 | 0.00 | 82 | 1015.8 |
| 20260903014555 | 18 | 223 | 11.3 | 20.9 | 0.00 | 0.13 | 0.00 | 82 | 1015.9 |
| 20260903014056 | 18 | 234 | 14.5 | 24.1 | 0.00 | 0.13 | 0.00 | 83 | 1015.9 |
| 20260903013556 | 18 | 239 | 8.0 | 16.1 | 0.00 | 0.13 | 0.00 | 83 | 1015.9 |
| 20260903013056 | 18 | 227 | 8.0 | 14.5 | 0.00 | 0.13 | 0.00 | 82 | 1016.0 |
| 20260903012556 | 18 | 228 | 11.3 | 16.1 | 0.00 | 0.13 | 0.00 | 81 | 1016.3 |
| 20260903012057 | 19 | 250 | 11.3 | 24.1 | 0.00 | 0.13 | 0.00 | 81 | 1016.3 |
| 20260903011555 | 19 | 239 | 8.0 | 19.3 | 0.00 | 0.13 | 0.00 | 79 | 1016.3 |
| 20260903011056 | 19 | 248 | 16.1 | 32.2 | 0.00 | 0.13 | 0.00 | 79 | 1016.3 |
| 20260903005556 | 19 | 261 | 8.0 | 25.7 | 0.00 | 0.13 | 0.00 | 78 | 1016.3 |
| 20260903005056 | 19 | 241 | 8.0 | 19.3 | 0.00 | 0.13 | 0.00 | 77 | 1016.4 |
| 20260903004555 | 19 | 241 | 9.7 | 19.3 | 0.00 | 0.13 | 0.00 | 77 | 1016.5 |
| 20260903003056 | 19 | 185 | 11.3 | 19.3 | 0.00 | 0.13 | 0.00 | 76 | 1016.7 |
| 20260903002555 | 19 | 230 | 11.3 | 25.7 | 0.00 | 0.13 | 0.00 | 76 | 1016.7 |
| 20260903002057 | 19 | 238 | 11.3 | 20.9 | 0.00 | 0.13 | 0.00 | 76 | 1016.8 |
| 20260903001556 | 19 | 226 | 8.0 | 25.7 | 0.00 | 0.13 | 0.00 | 76 | 1016.8 |
| 20260903001056 | 19 | 212 | 9.7 | 27.4 | 0.00 | 0.13 | 0.00 | 75 | 1016.9 |
| 20260903000055 | 19 | 237 | 11.3 | 20.9 | 0.00 | 0.13 | 0.00 | 75 | 1016.9 |
| 20260902235556 | 19 | 212 | 9.7 | 19.3 | 0.00 | 0.13 | 0.00 | 76 | 1016.9 |
| 20260902235056 | 19 | 231 | 11.3 | 22.5 | 0.00 | 0.13 | 0.00 | 76 | 1016.8 |
| 20260902234555 | 19 | 222 | 4.8 | 14.5 | 0.00 | 0.13 | 0.00 | 76 | 1016.9 |
| 20260902234055 | 19 | 219 | 9.7 | 19.3 | 0.00 | 0.13 | 0.00 | 76 | 1016.9 |
| 20260902232555 | 18 | 204 | 9.7 | 22.5 | 0.00 | 0.13 | 0.00 | 76 | 1017.2 |
| 20260902232055 | 18 | 233 | 11.3 | 19.3 | 0.00 | 0.13 | 0.00 | 76 | 1017.2 |
| 20260902231556 | 18 | 230 | 9.7 | 19.3 | 0.00 | 0.13 | 0.00 | 76 | 1017.3 |
| 20260902231056 | 18 | 214 | 8.0 | 32.2 | 0.00 | 0.13 | 0.00 | 76 | 1017.3 |
| 20260902230056 | 19 | 226 | 11.3 | 29.0 | 0.00 | 0.13 | 0.00 | 75 | 1017.5 |
| 20260902225556 | 19 | 215 | 9.7 | 19.3 | 0.00 | 0.13 | 0.00 | 75 | 1017.4 |
| 20260902225056 | 18 | 216 | 9.7 | 19.3 | 0.00 | 0.13 | 0.00 | 75 | 1017.5 |
| 20260902224556 | 18 | 230 | 8.0 | 19.3 | 0.00 | 0.13 | 0.00 | 75 | 1017.6 |
| 20260902221555 | 19 | 216 | 8.0 | 19.3 | 0.00 | 0.13 | 0.00 | 74 | 1017.6 |
| 20260902221056 | 19 | 214 | 9.7 | 19.3 | 0.00 | 0.13 | 0.00 | 74 | 1017.8 |
| 20260902214555 | 19 | 223 | 11.3 | 29.0 | 0.00 | 0.13 | 0.13 | 74 | 1017.9 |
| 20260902214056 | 19 | 224 | 8.0 | 22.5 | 0.00 | 0.13 | 0.13 | 75 | 1017.9 |
| 20260902213056 | 19 | 228 | 11.3 | 22.5 | 0.00 | 0.13 | 0.13 | 77 | 1018.0 |
| 20260902212555 | 19 | 246 | 11.3 | 22.5 | 0.00 | 0.13 | 0.13 | 77 | 1018.0 |
| 20260902212056 | 19 | 234 | 12.9 | 25.7 | 0.00 | 0.13 | 0.13 | 77 | 1018.2 |
| 20260902211555 | 19 | 225 | 11.3 | 20.9 | 0.00 | 0.13 | 0.13 | 78 | 1018.3 |
| 20260902211055 | 19 | 241 | 4.8 | 19.3 | 0.00 | 0.13 | 0.13 | 79 | 1018.1 |
| 20260902210055 | 19 | 249 | 4.8 | 12.9 | 0.00 | 0.13 | 0.13 | 80 | 1018.0 |
| 20260902205056 | 19 | 215 | 9.7 | 16.1 | 0.00 | 0.13 | 0.13 | 81 | 1018.2 |
| 20260902204555 | 19 | 193 | 8.0 | 12.9 | 0.00 | 0.13 | 0.13 | 81 | 1018.2 |
| 20260902201555 | 19 | 200 | 8.0 | 11.3 | 0.00 | 0.13 | 0.13 | 80 | 1018.4 |
| 20260902201055 | 19 | 215 | 4.8 | 11.3 | 0.00 | 0.13 | 0.13 | 80 | 1018.4 |
| 20260902195555 | 19 | 230 | 8.0 | 14.5 | 0.00 | 0.13 | 0.13 | 79 | 1018.6 |
| 20260902195056 | 19 | 200 | 6.4 | 12.9 | 0.00 | 0.13 | 0.13 | 79 | 1018.8 |
| 20260902194555 | 19 | 211 | 8.0 | 14.5 | 0.00 | 0.13 | 0.13 | 78 | 1018.7 |
| 20260902194057 | 19 | 228 | 4.8 | 12.9 | 0.00 | 0.13 | 0.13 | 78 | 1018.8 |
| 20260902192555 | 19 | 227 | 8.0 | 12.9 | 0.00 | 0.13 | 0.13 | 77 | 1018.8 |
| 20260902185555 | 20 | 240 | 8.0 | 16.1 | 0.00 | 0.13 | 0.13 | 78 | 1018.9 |
| 20260902185056 | 20 | 254 | 8.0 | 19.3 | 0.00 | 0.13 | 0.13 | 78 | 1018.9 |
| 20260902184555 | 20 | 217 | 6.4 | 16.1 | 0.00 | 0.13 | 0.13 | 78 | 1018.9 |